Weather History for East Milton, MA

Change the Weather History Date:

Tuesday, February 19, 2013

  Actual Average (KBOS) Record (KBOS)
Temperature  
Mean Temperature 33 °F 32 °F  
Max Temperature 45 °F 40 °F 65 °F (1961)
Min Temperature 21 °F 25 °F 4 °F (1936)
Degree Days  
Heating Degree Days 32 33  
Month to date heating degree days 647  
Since 1 July heating degree days 3757  
Cooling Degree Days 0 0  
Month to date cooling degree days 0  
Year to date cooling degree days 0  
Moisture  
Dew Point 23 °F    
Average Humidity 62    
Maximum Humidity 96    
Minimum Humidity 38    
Precipitation  
Precipitation 0.37 in 0.12 in 2.40 in (1972)
Month to date precipitation 2.14  
Year to date precipitation 5.50  
Sea Level Pressure  
Sea Level Pressure 29.97 in    
Wind  
Wind Speed 14 mph (SSW)    
Max Wind Speed 20 mph    
Max Gust Speed 31 mph    
T = Trace of Precipitation, MM = Missing Value Source: NWS Daily Summary

Daily Weather History Graph

Daily Weather History Graph

Search for Another Location

Airport:

Trip Planner

Search our weather history database for the weather conditions in past years. The results will help you decide how hot, cold, wet, or windy it might be!

Date:

Astronomy

Feb. 19, 2013 Rise Set
Actual Time 6:34 AM EST 5:22 PM EST
Civil Twilight 6:06 AM EST 5:50 PM EST
Nautical Twilight 5:33 AM EST 6:23 PM EST
Astronomical Twilight 5:01 AM EST 6:56 PM EST
Moon 11:48 AM EST (2/19) 2:07 AM EST (2/19)
Length of Visible Light 11h 44m
Length of Day
10h 47m
Waxing Gibbous, 67% of the Moon is Illuminated
Feb 19
Waxing Gibbous
Feb 25
Full
Mar 4
Last Quarter
Mar 11
New
Mar 19
First Quarter

Hourly Weather History & Observations

Time (EST) Temp. Windchill Dew Point Humidity Pressure Visibility Wind Dir Wind Speed Gust Speed Precip Events Conditions
12:54 AM 21.0 °F 8.1 °F -0.9 °F 38% 30.17 in - West 13.8 mph 20.7 mph N/A   Unknown
1:54 AM 23.0 °F 10.1 °F 1.0 °F 39% 30.17 in - West 15.0 mph - N/A   Unknown
2:54 AM 23.0 °F 10.6 °F 3.0 °F 42% 30.17 in - WSW 13.8 mph - N/A   Unknown
3:54 AM 23.0 °F 11.1 °F 3.0 °F 42% 30.14 in - West 12.7 mph - N/A   Unknown
4:54 AM 25.0 °F 14.2 °F 3.9 °F 41% 30.14 in - WSW 11.5 mph - N/A   Unknown
5:54 AM 26.1 °F 14.5 °F 5.0 °F 41% 30.15 in - SW 13.8 mph - N/A   Unknown
6:54 AM 27.0 °F 15.6 °F 8.1 °F 45% 30.14 in - SW 13.8 mph - N/A   Unknown
7:54 AM 28.9 °F 18.2 °F 12.9 °F 51% 30.12 in - SSW 13.8 mph - N/A   Unknown
8:54 AM 32.0 °F 22.1 °F 17.1 °F 54% 30.12 in - SSW 13.8 mph 20.7 mph N/A   Unknown
9:54 AM 37.9 °F 29.2 °F 21.9 °F 53% 30.10 in - SSW 15.0 mph - N/A   Unknown
10:54 AM 41.0 °F 32.5 °F 25.0 °F 53% 30.08 in - South 17.3 mph 24.2 mph N/A   Unknown
11:54 AM 43.0 °F 35.7 °F 27.0 °F 53% 30.04 in - South 15.0 mph 24.2 mph N/A   Unknown
12:54 PM 45.0 °F 37.6 °F 28.0 °F 52% 29.99 in - South 17.3 mph 31.1 mph N/A   Unknown
1:54 PM 44.1 °F 36.2 °F 28.0 °F 53% 29.96 in - South 18.4 mph 28.8 mph N/A   Unknown
2:54 PM 44.1 °F 37.1 °F 30.0 °F 58% 29.93 in - South 15.0 mph 28.8 mph N/A   Unknown
3:54 PM 44.1 °F 37.1 °F 33.1 °F 65% 29.89 in - South 15.0 mph 31.1 mph N/A   Unknown
4:54 PM 43.0 °F 34.5 °F 37.0 °F 80% 29.86 in - South 19.6 mph 31.1 mph 0.01 in   Unknown
5:54 PM 41.0 °F 33.1 °F 37.9 °F 89% 29.81 in - SSE 15.0 mph 21.9 mph N/A   Unknown
7:54 PM 41.0 °F 32.5 °F 39.9 °F 96% 29.73 in - SSE 17.3 mph 25.3 mph 0.11 in   Unknown
8:54 PM 42.1 °F 34.9 °F 41.0 °F 96% 29.65 in - SE 13.8 mph - 0.10 in   Unknown
9:54 PM 43.0 °F 36.8 °F 41.0 °F 93% 29.63 in - SSW 11.5 mph - 0.10 in   Unknown
10:54 PM 42.1 °F 37.7 °F 41.0 °F 96% 29.61 in - WSW 6.9 mph - 0.05 in   Unknown
11:54 PM 41.0 °F 32.8 °F 39.0 °F 93% 29.60 in - West 16.1 mph 21.9 mph N/A   Unknown